Miscellaneous Local Product
Issued by NWS Hastings, NE

Home | Current Version | Previous Version | Text Only | Print | Product List | Glossary On
Versions: 1 2 3 4 5 6 7 8 9 10 11 12 13 14 15 16 17 18 19 20 21 22 23 24 25 26 27 28 29 30 31 32 33 34 35 36 37 38 39 40 41 42 43 44 45 46 47 48 49 50
000
AXUS43 KGID 301302
MISGRI

GID CWA HOURLY WEATHER ROUNDUP
NATIONAL WEATHER SERVICE HASTINGS NE
800 AM CDT SUN AUG 30 2015

NOTE: "FAIR" INDICATES FEW OR NO CLOUDS BELOW 12,000 FEET WITH NO
SIGNIFICANT WEATHER AND/OR OBSTRUCTIONS TO VISIBILITY.

...SOUTH CENTRAL NEBRASKA...

CITY           SKY/WX    TMP DP  RH WIND       PRES   REMARKS
GRAND ISLAND   CLOUDY    63  62  97 S6        30.05S FOG
HASTINGS       FOG       61  61 100 S6        30.06R VSB 1/4
KEARNEY        CLOUDY    57  55  94 S5        30.04S VSB 1/4
ORD            SUNNY     55  55 100 SE3       30.01S
YORK           FOG       61  61 100 SW5       30.06R VSB<1/4
AURORA         FOG       63  63 100 S7        30.05S VSB 1/4
LEXINGTON      CLEAR     57  56  94 SE3       30.05R FOG
HOLDREGE       CLEAR     57  55  95 CALM      30.05R
HEBRON         FOG       57  56  95 CALM      30.06R VSB<1/4

...NEBRASKA PANHANDLE...

CITY           SKY/WX    TMP DP  RH WIND       PRES   REMARKS
CHADRON        CLEAR     66  43  43 S9        29.89F HAZE
ALLIANCE       PTCLDY    57  46  66 S7        29.99R
SCOTTSBLUFF    PTCLDY    58  48  69 E8        29.98S
SIDNEY         CLEAR     63  45  51 SW7       30.05R

...WESTERN AND NORTH CENTRAL NEBRASKA...

CITY           SKY/WX    TMP DP  RH WIND       PRES   REMARKS
VALENTINE      PTCLDY    62  53  72 SW8       29.95S
AINSWORTH      PTCLDY    63  55  75 S10       29.97S
ONEILL         SUNNY     62  60  95 S7        30.00R
BROKEN BOW     CLEAR     57  55  93 CALM      30.02S
IMPERIAL       PTCLDY    58  47  66 CALM      30.04S
NORTH PLATTE   PTCLDY    55  51  86 E3        30.03S
MCCOOK         CLEAR     55  50  83 CALM      30.05R

...EASTERN NEBRASKA...

CITY           SKY/WX    TMP DP  RH WIND       PRES   REMARKS
NORFOLK        CLOUDY    63  62  97 S8        30.02S FOG
TEKAMAH        CLOUDY    63  61  93 SW6       30.04R FOG
COLUMBUS       CLOUDY    63  57  82 SW3       30.05R
OMAHA EPPLEY   CLOUDY    63  62  97 SW6       30.05R FOG
OFFUTT AFB     CLOUDY    63  62  99 SW6       30.05R FOG
MILLARD        CLOUDY    63  61  94 CALM      30.05R FOG
LINCOLN        CLOUDY    63  61  93 SW6       30.06S FOG
NEBRASKA CITY  FOG       55  55  99 CALM      30.06R VSB 1/4
BEATRICE       FOG       58  58 100 CALM      30.06R VSB<1/4
FALLS CITY     CLOUDY    59  59 100 CALM      30.05R FOG

...NORTHERN KANSAS...

CITY           SKY/WX    TMP DP  RH WIND       PRES   REMARKS
GOODLAND       PTCLDY    62  48  60 S12       30.09R
HILL CITY      FOG       54  54 100 CALM      30.07R VSB<1/4
NORTON         SUNNY     54  50  87 SE3       30.05S
PHILLIPSBURG   FOG       57  57 100 CALM      30.06S VSB 0
SMITH CENTER   FOG       55  55 100 CALM      30.07S VSB 1/4
HAYS           CLOUDY    55  48  76 W3        30.07S VSB 1/4
RUSSELL        FOG       54  54 100 SW3       30.05R VSB 1/4
CONCORDIA      FOG       58  58 100 CALM      30.07R VSB<1/4
SALINA         CLOUDY    62  61  96 CALM      30.06R FOG
TOPEKA         FOG       64  64 100 CALM      30.03S VSB 1/4



USA.gov is the U.S. government's official web portal to all federal, state and local government web resources and services.